Fort Myers, FL

8:53 PM EST on January 22, 2017 (GMT -0500)
Page

Weather History for KFMY - March, 2014

Change the Weather History Date:

Tuesday, March 11, 2014

  Actual Average Record
Temperature  
Mean Temperature 69 °F 69 °F  
Max Temperature 80 °F 80 °F 88 °F (1975)
Min Temperature 58 °F 59 °F 40 °F (1961)
Degree Days  
Heating Degree Days 0 1  
Month to date heating degree days 2 11  
Since 1 July heating degree days 171 271  
Cooling Degree Days 4 5  
Month to date cooling degree days 49 55  
Year to date cooling degree days 310 240  
Growing Degree Days 19 (Base 50)    
Moisture  
Dew Point 60 °F    
Average Humidity 78    
Maximum Humidity 97    
Minimum Humidity 45    
Precipitation  
Precipitation 0.00 in 0.10 in 2.05 in (2010)
Month to date precipitation 0.77 1.02  
Year to date precipitation 4.21 5.11  
Sea Level Pressure  
Sea Level Pressure 29.95 in    
Wind  
Wind Speed 5 mph (South)    
Max Wind Speed 15 mph    
Max Gust Speed 19 mph    
Visibility 9 miles    
Events      
T = Trace of Precipitation, MM = Missing Value Source: NWS Daily Summary

Daily Weather History Graph

Daily Weather History Graph

Search for Another Location

Airport or City:

Trip Planner

Search our weather history database for the weather conditions in past years. The results will help you decide how hot, cold, wet, or windy it might be!

Date:

Astronomy

Mar. 11, 2014 Rise Set
Actual Time 7:41 AM EDT 7:34 PM EDT
Civil Twilight 7:17 AM EDT 7:57 PM EDT
Nautical Twilight 6:51 AM EDT 8:24 PM EDT
Astronomical Twilight 6:24 AM EDT 8:51 PM EDT
Moon 3:28 PM EDT (3/11) 4:13 AM EDT (3/11)
Length of Visible Light 12h 39m
Length of Day
11h 53m
Waxing Gibbous, 78% of the Moon is Illuminated
Mar 11
Waxing Gibbous
Mar 16
Full
Mar 23
Last Quarter
Mar 30
New
Apr 7
First Quarter

Hourly Weather History & Observations

Time (EDT) Temp. Dew Point Humidity Pressure Visibility Wind Dir Wind Speed Gust Speed Precip Events Conditions
12:53 AM 63.0 °F 60.1 °F 90% 30.03 in 10.0 mi WSW 3.5 mph - N/A   Clear
1:53 AM 62.1 °F 59.0 °F 90% 30.02 in 10.0 mi Calm Calm - N/A   Clear
2:53 AM 60.1 °F 57.9 °F 93% 30.00 in 10.0 mi Calm Calm - N/A   Clear
3:53 AM 61.0 °F 59.0 °F 93% 29.97 in 10.0 mi SE 3.5 mph - N/A   Clear
4:53 AM 60.1 °F 57.9 °F 93% 29.97 in 8.0 mi Calm Calm - N/A   Clear
5:53 AM 59.0 °F 57.9 °F 96% 29.96 in 5.0 mi Calm Calm - N/A   Clear
6:53 AM 59.0 °F 57.9 °F 96% 29.97 in 4.0 mi Calm Calm - N/A   Clear
7:53 AM 59.0 °F 57.0 °F 93% 29.98 in 4.0 mi ENE 3.5 mph - N/A   Clear
8:40 AM 61.0 °F 59.0 °F 93% 29.97 in 5.0 mi East 3.5 mph - N/A   Mostly Cloudy
8:53 AM 62.1 °F 59.0 °F 90% 29.99 in 5.0 mi ENE 5.8 mph - N/A   Overcast
9:21 AM 63.0 °F 60.1 °F 90% 29.98 in 6.0 mi East 5.8 mph - N/A   Overcast
9:53 AM 64.9 °F 61.0 °F 87% 29.99 in 8.0 mi East 4.6 mph - N/A   Overcast
10:53 AM 69.1 °F 62.1 °F 78% 29.99 in 10.0 mi East 3.5 mph - N/A   Mostly Cloudy
11:53 AM 73.0 °F 62.1 °F 68% 29.98 in 10.0 mi SSW 4.6 mph - N/A   Mostly Cloudy
12:53 PM 75.9 °F 61.0 °F 60% 29.96 in 10.0 mi SW 6.9 mph - N/A   Partly Cloudy
1:53 PM 78.1 °F 62.1 °F 58% 29.94 in 10.0 mi SW 8.1 mph - N/A   Clear
2:53 PM 78.1 °F 60.1 °F 54% 29.91 in 10.0 mi Variable 6.9 mph - N/A   Clear
3:53 PM 79.0 °F 60.1 °F 52% 29.88 in 10.0 mi SSW 10.4 mph - N/A   Clear
4:53 PM 79.0 °F 55.0 °F 44% 29.87 in 10.0 mi SW 12.7 mph - N/A   Clear
5:53 PM 77.0 °F 57.0 °F 50% 29.87 in 10.0 mi SW 8.1 mph - N/A   Clear
6:53 PM 75.0 °F 60.1 °F 60% 29.88 in 10.0 mi SSW 11.5 mph - N/A   Clear
7:53 PM 72.0 °F 63.0 °F 73% 29.90 in 10.0 mi SSW 3.5 mph - N/A   Clear
8:53 PM 71.1 °F 64.0 °F 78% 29.91 in 10.0 mi Calm Calm - N/A   Clear
9:53 PM 71.1 °F 64.9 °F 81% 29.91 in 10.0 mi SSW 3.5 mph - N/A   Clear
10:53 PM 70.0 °F 64.9 °F 84% 29.91 in 10.0 mi Calm Calm - N/A   Clear
11:53 PM 69.1 °F 64.9 °F 87% 29.89 in 10.0 mi South 6.9 mph - N/A   Clear